User: anonymous
Location: Wawayanda State Park
(41.1833°N, 74.4333°W)
Time: 00:53:32
(UTC-04:00)
Language:

Landsat 7 - Orbit

View from above orbital plane
View from above orbital plane
View from above satellite
View from above satellite

Ground track
Ground track

The orbit data is extracted from the following two-line orbital elements,

1 25682U 99020A   14258.80050244 -.00001711  00000-0 -37005-3 0  6061
2 25682 098.2289 327.1914 0001179 085.0232 275.1138 14.57091157820184
Epoch (UTC): 15 September 2014 19:12:43
Eccentricity: 0.0001179
inclination: 98.2289°
perigee height: 702 km
apogee height: 703 km
right ascension of ascending node: 327.1914°
argument of perigee: 85.0232°
revolutions per day: 14.57091157
mean anomaly at epoch: 275.1138°
orbit number at epoch: 82018

The dashed part of the orbit path shows where the satellite is in the earth's shadow,  

DLR